Time,TemperatureF,DewpointF,PressureIn,WindDirection,WindDirectionDegrees,WindSpeedMPH,WindSpeedGustMPH,Humidity,HourlyPrecipIn,Conditions,Clouds,dailyrainin,SoftwareType,DateUTC
2013-05-03 00:06:00,57.6,49.0,30.06,NNE,22,0.0,-999.0,73,-99.99,,,0.00,Acu-Link.com,2013-05-03 04:06:00,
2013-05-03 00:22:00,57.6,49.4,30.06,NNE,22,1.7,-999.0,74,-99.99,,,0.00,Acu-Link.com,2013-05-03 04:22:00,
2013-05-03 00:37:00,57.9,49.3,30.05,NNE,22,1.7,-999.0,73,-99.99,,,0.00,Acu-Link.com,2013-05-03 04:37:00,
2013-05-03 00:52:00,57.6,49.0,30.05,NNE,22,0.0,-999.0,73,-99.99,,,0.00,Acu-Link.com,2013-05-03 04:52:00,
2013-05-03 01:07:00,57.6,49.0,30.05,NNE,22,0.0,-999.0,73,-99.99,,,0.00,Acu-Link.com,2013-05-03 05:07:00,
2013-05-03 01:22:00,56.8,48.6,30.05,NNE,22,0.0,-999.0,74,-99.99,,,0.00,Acu-Link.com,2013-05-03 05:22:00,
2013-05-03 01:37:00,57.2,47.9,30.05,NNE,22,0.0,-999.0,71,-99.99,,,0.00,Acu-Link.com,2013-05-03 05:37:00,
2013-05-03 01:52:00,56.5,46.8,30.05,NNE,22,0.0,-999.0,70,-99.99,,,0.00,Acu-Link.com,2013-05-03 05:52:00,
2013-05-03 02:07:00,57.0,45.8,30.04,NNE,22,1.1,-999.0,66,-99.99,,,0.00,Acu-Link.com,2013-05-03 06:07:00,
2013-05-03 02:23:00,56.7,46.3,30.04,NNE,22,0.0,-999.0,68,-99.99,,,0.00,Acu-Link.com,2013-05-03 06:23:00,
2013-05-03 02:38:00,56.7,45.1,30.03,NNE,22,0.0,-999.0,65,-99.99,,,0.00,Acu-Link.com,2013-05-03 06:38:00,
2013-05-03 02:53:00,56.7,44.2,30.03,South,180,2.2,-999.0,63,-99.99,,,0.00,Acu-Link.com,2013-05-03 06:53:00,
2013-05-03 03:08:00,56.7,43.8,30.03,ESE,112,1.1,-999.0,62,-99.99,,,0.00,Acu-Link.com,2013-05-03 07:08:00,
2013-05-03 03:23:00,57.0,43.7,30.03,South,180,1.7,-999.0,61,-99.99,,,0.00,Acu-Link.com,2013-05-03 07:23:00,
2013-05-03 03:38:00,57.0,43.3,30.02,SSE,157,0.0,-999.0,60,-99.99,,,0.00,Acu-Link.com,2013-05-03 07:38:00,
2013-05-03 03:53:00,56.5,43.6,30.02,ESE,112,0.0,-999.0,62,-99.99,,,0.00,Acu-Link.com,2013-05-03 07:53:00,
2013-05-03 04:09:00,57.0,44.1,30.03,NNE,22,1.7,-999.0,62,-99.99,,,0.00,Acu-Link.com,2013-05-03 08:09:00,
2013-05-03 04:24:00,57.4,43.6,30.02,NNE,22,1.7,-999.0,60,-99.99,,,0.00,Acu-Link.com,2013-05-03 08:24:00,
2013-05-03 04:39:00,56.7,43.4,30.02,SSW,202,1.7,-999.0,61,-99.99,,,0.00,Acu-Link.com,2013-05-03 08:39:00,
2013-05-03 04:55:00,56.5,43.2,30.03,East,90,1.7,-999.0,61,-99.99,,,0.00,Acu-Link.com,2013-05-03 08:55:00,
2013-05-03 05:10:00,56.7,43.0,30.03,NNE,22,1.1,-999.0,60,-99.99,,,0.00,Acu-Link.com,2013-05-03 09:10:00,
2013-05-03 05:25:00,56.1,42.8,30.03,SSE,157,1.7,-999.0,61,-99.99,,,0.00,Acu-Link.com,2013-05-03 09:25:00,
2013-05-03 05:40:00,55.6,42.8,30.03,SE,135,1.7,-999.0,62,-99.99,,,0.00,Acu-Link.com,2013-05-03 09:40:00,
2013-05-03 05:55:00,56.1,42.8,30.03,NNE,22,0.0,-999.0,61,-99.99,,,0.00,Acu-Link.com,2013-05-03 09:55:00,
2013-05-03 06:10:00,55.4,43.0,30.04,NNE,22,1.7,-999.0,63,-99.99,,,0.00,Acu-Link.com,2013-05-03 10:10:00,
2013-05-03 06:25:00,55.0,43.0,30.04,NNE,22,0.0,-999.0,64,-99.99,,,0.00,Acu-Link.com,2013-05-03 10:25:00,
2013-05-03 06:40:00,55.2,43.2,30.04,NNE,22,1.7,-999.0,64,-99.99,,,0.00,Acu-Link.com,2013-05-03 10:40:00,
2013-05-03 06:55:00,55.8,43.4,30.04,NNE,22,1.1,-999.0,63,-99.99,,,0.00,Acu-Link.com,2013-05-03 10:55:00,
2013-05-03 07:11:00,56.1,43.7,30.04,NNE,22,2.2,-999.0,63,-99.99,,,0.00,Acu-Link.com,2013-05-03 11:11:00,
2013-05-03 07:26:00,57.6,44.7,30.04,ESE,112,2.2,-999.0,62,-99.99,,,0.00,Acu-Link.com,2013-05-03 11:26:00,
2013-05-03 07:41:00,60.1,45.7,30.04,ENE,67,2.2,-999.0,59,-99.99,,,0.00,Acu-Link.com,2013-05-03 11:41:00,
2013-05-03 07:56:00,62.4,46.0,30.04,NNE,22,2.2,-999.0,55,-99.99,,,0.00,Acu-Link.com,2013-05-03 11:56:00,
2013-05-03 08:11:00,64.4,46.4,30.04,SSE,157,3.7,-999.0,52,-99.99,,,0.00,Acu-Link.com,2013-05-03 12:11:00,
2013-05-03 08:26:00,65.7,47.1,30.04,ESE,112,4.2,-999.0,51,-99.99,,,0.00,Acu-Link.com,2013-05-03 12:26:00,
2013-05-03 08:41:00,66.7,48.0,30.04,South,180,6.8,-999.0,51,-99.99,,,0.00,Acu-Link.com,2013-05-03 12:41:00,
2013-05-03 08:57:00,69.1,49.7,30.04,SSE,157,2.2,-999.0,50,-99.99,,,0.00,Acu-Link.com,2013-05-03 12:57:00,
2013-05-03 09:12:00,71.1,51.0,30.04,South,180,2.2,-999.0,49,-99.99,,,0.00,Acu-Link.com,2013-05-03 13:12:00,
2013-05-03 09:27:00,71.4,50.1,30.04,SE,135,2.7,-999.0,47,-99.99,,,0.00,Acu-Link.com,2013-05-03 13:27:00,
2013-05-03 09:42:00,70.7,51.1,30.04,SE,135,2.2,-999.0,50,-99.99,,,0.00,Acu-Link.com,2013-05-03 13:42:00,
2013-05-03 09:57:00,71.6,51.4,30.04,ENE,67,1.7,-999.0,49,-99.99,,,0.00,Acu-Link.com,2013-05-03 13:57:00,
2013-05-03 10:12:00,73.9,53.0,30.04,South,180,2.7,-999.0,48,-99.99,,,0.00,Acu-Link.com,2013-05-03 14:12:00,
2013-05-03 10:27:00,73.6,54.3,30.03,ESE,112,2.2,-999.0,51,-99.99,,,0.00,Acu-Link.com,2013-05-03 14:27:00,
2013-05-03 10:42:00,72.0,52.3,30.03,SE,135,1.7,-999.0,50,-99.99,,,0.00,Acu-Link.com,2013-05-03 14:42:00,
2013-05-03 10:57:00,73.8,55.1,30.04,NNE,22,2.7,-999.0,52,-99.99,,,0.00,Acu-Link.com,2013-05-03 14:57:00,
2013-05-03 11:13:00,74.5,55.2,30.04,South,180,2.2,-999.0,51,-99.99,,,0.00,Acu-Link.com,2013-05-03 15:13:00,
2013-05-03 11:28:00,75.2,55.8,30.03,NNE,22,2.7,-999.0,51,-99.99,,,0.00,Acu-Link.com,2013-05-03 15:28:00,
2013-05-03 11:43:00,77.0,56.9,30.03,ESE,112,2.2,-999.0,50,-99.99,,,0.00,Acu-Link.com,2013-05-03 15:43:00,
2013-05-03 11:58:00,76.6,57.1,30.03,South,180,1.7,-999.0,51,-99.99,,,0.00,Acu-Link.com,2013-05-03 15:58:00,
2013-05-03 12:13:00,75.7,55.2,30.02,NE,45,5.3,-999.0,49,-99.99,,,0.00,Acu-Link.com,2013-05-03 16:13:00,
2013-05-03 12:28:00,77.7,56.4,30.02,SSE,157,5.8,-999.0,48,-99.99,,,0.00,Acu-Link.com,2013-05-03 16:28:00,
2013-05-03 12:45:00,76.3,55.7,30.02,East,90,2.2,-999.0,49,-99.99,,,0.00,Acu-Link.com,2013-05-03 16:45:00,
2013-05-03 13:01:00,77.4,56.2,30.01,SSE,157,4.2,-999.0,48,-99.99,,,0.00,Acu-Link.com,2013-05-03 17:01:00,
2013-05-03 13:16:00,78.4,57.1,30.01,ESE,112,3.2,-999.0,48,-99.99,,,0.00,Acu-Link.com,2013-05-03 17:16:00,
2013-05-03 13:31:00,77.0,58.0,30.01,ESE,112,4.2,-999.0,52,-99.99,,,0.00,Acu-Link.com,2013-05-03 17:31:00,
2013-05-03 13:46:00,75.7,55.2,30.01,ESE,112,4.2,-999.0,49,-99.99,,,0.00,Acu-Link.com,2013-05-03 17:46:00,
2013-05-03 14:01:00,78.1,58.5,30.01,South,180,5.8,-999.0,51,-99.99,,,0.00,Acu-Link.com,2013-05-03 18:01:00,
2013-05-03 14:16:00,77.2,57.1,30.01,ESE,112,4.7,-999.0,50,-99.99,,,0.00,Acu-Link.com,2013-05-03 18:16:00,
2013-05-03 14:31:00,77.9,57.7,30.01,SSE,157,2.7,-999.0,50,-99.99,,,0.00,Acu-Link.com,2013-05-03 18:31:00,
2013-05-03 14:46:00,77.4,57.3,30.01,East,90,5.8,-999.0,50,-99.99,,,0.00,Acu-Link.com,2013-05-03 18:46:00,
2013-05-03 15:01:00,77.9,57.2,30.00,SSE,157,5.3,-999.0,49,-99.99,,,0.00,Acu-Link.com,2013-05-03 19:01:00,
2013-05-03 15:17:00,77.9,57.7,30.00,South,180,3.2,-999.0,50,-99.99,,,0.00,Acu-Link.com,2013-05-03 19:17:00,
2013-05-03 15:32:00,78.4,58.2,30.00,SSE,157,4.7,-999.0,50,-99.99,,,0.00,Acu-Link.com,2013-05-03 19:32:00,
2013-05-03 15:47:00,78.3,58.1,30.00,East,90,3.2,-999.0,50,-99.99,,,0.00,Acu-Link.com,2013-05-03 19:47:00,
2013-05-03 16:02:00,78.3,57.5,29.99,ESE,112,2.2,-999.0,49,-99.99,,,0.00,Acu-Link.com,2013-05-03 20:02:00,
2013-05-03 16:17:00,78.6,57.2,29.98,East,90,4.7,-999.0,48,-99.99,,,0.00,Acu-Link.com,2013-05-03 20:17:00,
2013-05-03 16:32:00,78.3,56.4,29.98,NE,45,4.7,-999.0,47,-99.99,,,0.00,Acu-Link.com,2013-05-03 20:32:00,
2013-05-03 16:47:00,78.3,53.9,29.98,South,180,7.8,-999.0,43,-99.99,,,0.00,Acu-Link.com,2013-05-03 20:47:00,
2013-05-03 17:02:00,77.2,53.6,29.98,NE,45,3.7,-999.0,44,-99.99,,,0.00,Acu-Link.com,2013-05-03 21:02:00,
2013-05-03 17:17:00,77.4,51.2,29.98,South,180,3.7,-999.0,40,-99.99,,,0.00,Acu-Link.com,2013-05-03 21:17:00,
2013-05-03 17:32:00,77.0,51.5,29.98,ESE,112,5.3,-999.0,41,-99.99,,,0.00,Acu-Link.com,2013-05-03 21:32:00,
2013-05-03 17:48:00,76.3,45.9,29.98,ESE,112,3.2,-999.0,34,-99.99,,,0.00,Acu-Link.com,2013-05-03 21:48:00,
2013-05-03 18:03:00,77.0,42.3,29.98,ESE,112,4.7,-999.0,29,-99.99,,,0.00,Acu-Link.com,2013-05-03 22:03:00,
2013-05-03 18:18:00,78.3,38.5,29.98,South,180,3.7,-999.0,24,-99.99,,,0.00,Acu-Link.com,2013-05-03 22:18:00,
2013-05-03 18:33:00,81.0,38.6,29.98,SSE,157,5.8,-999.0,22,-99.99,,,0.00,Acu-Link.com,2013-05-03 22:33:00,
2013-05-03 18:48:00,78.3,36.3,29.98,SSE,157,4.2,-999.0,22,-99.99,,,0.00,Acu-Link.com,2013-05-03 22:48:00,
2013-05-03 19:03:00,76.6,37.1,29.99,ESE,112,6.3,-999.0,24,-99.99,,,0.00,Acu-Link.com,2013-05-03 23:03:00,
2013-05-03 19:19:00,75.2,37.9,29.99,ESE,112,4.7,-999.0,26,-99.99,,,0.00,Acu-Link.com,2013-05-03 23:19:00,
2013-05-03 19:34:00,74.1,38.0,29.99,South,180,3.2,-999.0,27,-99.99,,,0.00,Acu-Link.com,2013-05-03 23:34:00,
2013-05-03 19:49:00,72.7,37.7,29.99,South,180,4.7,-999.0,28,-99.99,,,0.00,Acu-Link.com,2013-05-03 23:49:00,
2013-05-03 20:04:00,70.2,39.0,29.99,ESE,112,2.7,-999.0,32,-99.99,,,0.00,Acu-Link.com,2013-05-04 00:04:00,
2013-05-03 20:19:00,67.8,38.4,29.99,ESE,112,3.2,-999.0,34,-99.99,,,0.00,Acu-Link.com,2013-05-04 00:19:00,
2013-05-03 20:34:00,66.4,38.6,29.99,South,180,1.7,-999.0,36,-99.99,,,0.00,Acu-Link.com,2013-05-04 00:34:00,
2013-05-03 20:49:00,64.4,38.2,29.99,ESE,112,0.0,-999.0,38,-99.99,,,0.00,Acu-Link.com,2013-05-04 00:49:00,
2013-05-03 21:04:00,63.0,38.9,30.00,SE,135,0.0,-999.0,41,-99.99,,,0.00,Acu-Link.com,2013-05-04 01:04:00,
2013-05-03 21:19:00,61.7,38.4,30.01,SSE,157,0.0,-999.0,42,-99.99,,,0.00,Acu-Link.com,2013-05-04 01:19:00,
2013-05-03 21:35:00,59.9,38.5,30.01,SE,135,0.0,-999.0,45,-99.99,,,0.00,Acu-Link.com,2013-05-04 01:35:00,
2013-05-03 21:50:00,58.6,39.5,30.01,NNE,22,0.0,-999.0,49,-99.99,,,0.00,Acu-Link.com,2013-05-04 01:50:00,
2013-05-03 22:05:00,57.4,40.4,30.01,ESE,112,0.0,-999.0,53,-99.99,,,0.00,Acu-Link.com,2013-05-04 02:05:00,
2013-05-03 22:20:00,56.7,40.7,30.01,NNE,22,0.0,-999.0,55,-99.99,,,0.00,Acu-Link.com,2013-05-04 02:20:00,
2013-05-03 22:35:00,57.2,42.1,30.02,NNE,22,0.0,-999.0,57,-99.99,,,0.00,Acu-Link.com,2013-05-04 02:35:00,
2013-05-03 22:50:00,57.0,41.5,30.01,SE,135,2.2,-999.0,56,-99.99,,,0.00,Acu-Link.com,2013-05-04 02:50:00,
2013-05-03 23:05:00,57.7,42.6,30.01,SE,135,2.2,-999.0,57,-99.99,,,0.00,Acu-Link.com,2013-05-04 03:05:00,
2013-05-03 23:20:00,59.4,43.7,30.01,ESE,112,2.7,-999.0,56,-99.99,,,0.00,Acu-Link.com,2013-05-04 03:20:00,
2013-05-03 23:36:00,59.5,43.8,30.00,SE,135,2.7,-999.0,56,-99.99,,,0.00,Acu-Link.com,2013-05-04 03:36:00,
2013-05-03 23:51:00,59.7,43.5,30.00,SSE,157,2.2,-999.0,55,-99.99,,,0.00,Acu-Link.com,2013-05-04 03:51:00,